Location: Rounton
(54.4000°N, 1.3500°W)
Time: 22:43:10
(UTC+01:00)

Vanguard 1 - Pass Details

Date: 25 February 2024
Orbit: 653 x 3825 km, 34.2° (Epoch: 21 April)

Event Time Altitude Azimuth Distance (km) Brightness Sun altitude
Rises 21:40:32 0° 245° (WSW) 6,026 14.4 -34.8°
Reaches altitude 10° 21:44:17 10° 238° (WSW) 5,393 14.0 -35.2°
Enters shadow 21:59:30 41° 179° (S) 4,465 12.9 -36.9°
Maximum altitude 21:59:56 41° 176° (S) 4,482 - -36.9°
Drops below altitude 10° 22:20:15 10° 118° (ESE) 6,895 - -38.9°
Sets 22:25:55 0° 112° (ESE) 7,790 - -39.4°
